Temp
9 9 9 10 10 10 10 10 10 10 10 10 10 11 11 11 10 11 11 11 11 10 11 11 11 11 11 11 12 12 12 12 12 12 12 12 12 12 12 12 12 12
8 8 8 9 9 9 10 10 11 11 10 11 11 11 11 11 11 11 11 10 10 10 11 10 10 10 11 11 11 11 12 12 12 12 12 12 12 12 12 12 12 12
7 7 8 8 8 9 9 10 11 11 11 11 11 12 12 12 12 11 11 11 11 11 10 10 10 10 10 11 11 11 12 12 12 11 11 12 12 12 12 12 12 12
7 7 7 8 8 9 10 10 11 11 11 11 12 12 12 12 12 12 12 12 12 11 10 10 10 10 10 10 11 11 12 12 12 11 11 11 11 12 12 12 12 12
7 7 7 8 8 9 10 10 11 11 11 11 11 11 11 12 12 12 12 12 11 11 11 10 10 10 10 10 10 10 11 11 11 11 11 11 11 11 12 12 12 12
6 7 7 7 8 9 9 10 10 10 10 10 10 11 11 11 11 11 11 11 11 11 11 11 11 10 9 9 9 9 10 10 11 11 10 11 11 11 12 12 12 12
6 6 6 7 7 8 8 9 9 10 10 10 10 10 10 10 10 10 11 11 11 11 10 11 11 10 9 9 9 9 9 9 9 10 10 10 11 11 12 11 11 12
5 5 5 6 7 7 8 8 9 9 8 9 9 9 9 9 9 9 9 10 10 10 10 10 10 10 9 9 8 8 8 8 8 9 9 9 10 11 11 11 11 11
4 5 5 6 6 7 7 7 7 7 7 8 8 8 8 8 8 8 8 9 9 9 9 9 9 9 8 8 8 8 8 8 8 8 8 9 9 10 11 11 11 11
4 4 5 5 6 6 6 6 6 6 7 7 7 7 7 8 7 8 8 8 8 8 7 7 7 7 7 7 7 8 8 8 8 8 8 8 9 10 10 10 11 11
4 4 5 5 5 5 6 6 6 6 6 6 7 7 7 7 7 7 7 7 7 7 7 7 7 6 7 7 7 7 8 8 8 8 8 8 8 9 9 10 10 11
4 4 5 5 5 5 5 5 5 5 6 6 6 6 7 7 6 6 6 6 6 6 6 6 6 6 6 6 7 7 8 8 8 8 8 8 8 8 9 9 10 10
4 4 4 4 5 5 5 5 5 5 6 6 6 6 6 6 5 5 5 5 5 5 5 5 5 5 5 5 6 6 7 8 8 8 8 8 8 8 9 9 9 10
4 4 4 4 4 4 4 4 5 5 5 5 5 5 5 5 5 5 4 4 4 4 4 4 4 5 5 5 5 5 6 7 7 8 8 8 8 8 8 9 9 9
4 4 4 4 4 4 4 4 4 4 5 5 5 5 4 4 4 4 4 4 3 4 4 4 4 4 4 4 4 4 5 5 6 6 6 6 7 8 8 8 9 9
4 4 4 4 4 4 4 4 4 4 4 4 4 4 3 3 3 3 3 3 3 3 3 3 4 3 3 3 4 4 4 4 5 5 5 5 6 7 7 8 8 9
3 4 4 4 4 4 4 3 3 3 4 4 3 3 3 2 3 3 3 3 3 3 3 3 3 3 3 3 4 4 4 4 4 4 4 4 5 5 6 7 8 8
3 3 3 3 3 3 3 3 3 3 3 3 3 2 2 2 2 3 2 2 2 2 2 2 3 3 3 3 4 4 4 4 4 4 4 4 4 5 5 5 6 7
3 3 3 3 3 3 3 3 3 3 2 2 2 2 2 2 2 2 2 2 2 2 2 2 2 2 3 3 3 3 4 4 4 4 4 4 4 4 5 5 5 6
3 3 3 3 3 3 3 3 3 2 2 2 2 2 2 2 2 2 2 2 2 2 2 2 2 2 2 2 3 3 3 4 4 4 4 4 4 4 4 4 5 5
3 3 3 3 3 3 3 3 3 2 2 2 2 2 1 1 1 1 1 2 2 2 2 2 2 2 2 2 2 3 3 4 4 4 4 4 4 4 3 3 4 4
3 3 3 3 3 3 3 3 3 2 2 2 2 1 1 1 1 1 1 1 1 1 2 2 1 1 1 2 2 2 3 3 3 3 4 4 3 3 3 3 3 4
3 3 3 3 3 3 3 3 2 2 2 2 2 2 1 1 1 1 1 1 1 1 1 1 1 1 1 1 1 2 2 2 3 3 3 3 3 3 3 3 3 3
3 3 3 3 3 3 2 2 2 2 2 2 2 2 1 1 1 1 1 1 1 1 1 1 1 0 0 0 1 1 1 1 2 2 2 2 3 3 3 3 3 3
3 3 3 3 3 2 2 2 2 2 2 2 2 1 1 1 1 1 1 1 0 0 0 0 0 -0 -0 -0 -0 0 1 1 1 1 1 1 1 2 2 2 3 3
3 3 3 3 3 2 2 2 2 2 2 2 1 1 1 1 1 1 1 0 0 -0 -1 -1 -0 -1 -1 -1 -1 -0 -0 0 0 0 0 0 0 1 1 2 2 2
Height
1541 1540 1539 1538 1538 1537 1536 1535 1534 1533 1532 1531 1530 1529 1528 1527 1526 1525 1524 1523 1522 1521 1519 1518 1518 1517 1515 1514 1513 1511 1510 1509 1507 1506 1505 1503 1502 1500 1499 1499 1498 1498
1540 1539 1539 1538 1537 1536 1535 1534 1533 1532 1531 1530 1529 1528 1527 1526 1525 1523 1522 1521 1519 1519 1517 1516 1515 1514 1513 1511 1510 1508 1507 1506 1505 1504 1502 1501 1499 1497 1496 1496 1495 1495
1540 1539 1539 1538 1537 1536 1535 1533 1532 1531 1530 1529 1528 1527 1525 1524 1523 1521 1520 1518 1517 1516 1516 1514 1513 1511 1510 1508 1507 1505 1504 1503 1502 1501 1500 1498 1497 1495 1494 1493 1493 1493
1539 1539 1538 1538 1537 1535 1534 1533 1532 1531 1530 1529 1527 1526 1524 1523 1521 1520 1518 1517 1516 1514 1514 1512 1510 1508 1507 1506 1504 1503 1502 1501 1500 1498 1497 1495 1494 1493 1492 1491 1490 1490
1540 1539 1538 1537 1536 1535 1534 1533 1532 1531 1529 1528 1527 1525 1524 1522 1520 1519 1517 1516 1514 1513 1511 1510 1507 1506 1505 1504 1502 1501 1500 1499 1498 1496 1494 1493 1492 1491 1490 1489 1488 1488
1540 1539 1538 1537 1536 1535 1534 1532 1531 1530 1528 1527 1526 1524 1523 1521 1519 1518 1516 1514 1513 1511 1509 1507 1505 1503 1502 1501 1500 1499 1498 1496 1495 1493 1492 1491 1489 1489 1488 1487 1486 1485
1540 1539 1538 1537 1535 1534 1533 1531 1530 1529 1528 1526 1525 1523 1522 1520 1519 1517 1515 1513 1511 1509 1508 1506 1503 1502 1500 1499 1498 1497 1495 1494 1493 1491 1489 1488 1487 1486 1485 1485 1483 1482
1540 1539 1538 1536 1535 1533 1532 1531 1530 1528 1527 1526 1524 1523 1521 1519 1518 1516 1514 1513 1510 1509 1507 1505 1503 1501 1499 1497 1495 1493 1492 1491 1490 1488 1487 1486 1484 1484 1483 1482 1481 1480
1541 1539 1538 1536 1534 1533 1532 1531 1529 1528 1527 1525 1524 1522 1521 1519 1517 1515 1514 1512 1510 1508 1506 1504 1502 1500 1498 1496 1493 1491 1489 1488 1488 1486 1484 1483 1482 1481 1480 1479 1478 1477
1541 1539 1538 1536 1534 1533 1532 1531 1530 1528 1527 1525 1523 1522 1520 1518 1517 1515 1513 1511 1509 1507 1505 1504 1501 1499 1497 1495 1492 1490 1487 1486 1484 1483 1481 1480 1479 1478 1478 1477 1475 1474
1541 1539 1537 1536 1535 1534 1533 1531 1530 1528 1527 1525 1523 1521 1519 1518 1516 1514 1512 1511 1509 1507 1505 1503 1501 1498 1496 1494 1491 1489 1486 1483 1481 1479 1478 1477 1476 1476 1475 1474 1473 1471
1540 1539 1537 1536 1535 1534 1533 1532 1530 1528 1526 1525 1523 1521 1519 1517 1516 1514 1512 1510 1509 1507 1505 1502 1500 1498 1495 1492 1490 1487 1484 1482 1479 1477 1474 1473 1472 1472 1471 1470 1469 1468
1540 1539 1538 1537 1536 1535 1534 1532 1531 1529 1527 1525 1523 1521 1520 1518 1516 1514 1512 1510 1509 1506 1504 1502 1500 1497 1494 1491 1488 1485 1482 1479 1477 1474 1472 1470 1468 1468 1467 1467 1466 1465
1541 1540 1538 1537 1537 1535 1534 1533 1531 1529 1527 1526 1524 1522 1520 1518 1516 1514 1512 1511 1508 1506 1504 1502 1499 1496 1492 1489 1487 1484 1481 1477 1474 1471 1468 1466 1465 1464 1463 1462 1462 1461
1541 1540 1539 1538 1537 1536 1535 1533 1532 1530 1528 1527 1524 1522 1520 1519 1517 1515 1513 1510 1508 1506 1504 1501 1498 1495 1492 1489 1486 1483 1480 1477 1473 1470 1466 1463 1461 1460 1459 1458 1457 1457
1542 1541 1540 1539 1538 1537 1536 1534 1533 1531 1529 1527 1525 1523 1521 1519 1518 1515 1513 1511 1508 1506 1504 1501 1498 1496 1493 1490 1487 1483 1480 1476 1473 1469 1466 1462 1459 1457 1455 1454 1453 1452
1543 1542 1541 1540 1539 1538 1537 1535 1534 1532 1530 1528 1526 1524 1522 1520 1518 1516 1514 1511 1509 1506 1504 1501 1499 1496 1493 1490 1487 1483 1480 1476 1472 1469 1465 1462 1459 1456 1453 1451 1450 1449
1544 1543 1542 1541 1540 1539 1538 1536 1535 1533 1531 1529 1527 1525 1523 1521 1519 1517 1514 1512 1509 1507 1504 1501 1499 1496 1493 1490 1486 1483 1480 1476 1472 1469 1465 1461 1458 1455 1452 1450 1447 1446
1545 1544 1543 1542 1541 1540 1539 1537 1535 1533 1531 1530 1528 1526 1524 1522 1520 1517 1515 1513 1510 1507 1504 1501 1499 1496 1492 1489 1486 1483 1479 1476 1472 1469 1465 1461 1458 1454 1451 1448 1446 1443
1546 1545 1544 1543 1543 1541 1540 1538 1536 1534 1532 1531 1529 1527 1525 1523 1521 1518 1516 1513 1511 1508 1505 1502 1499 1496 1492 1489 1486 1482 1479 1475 1472 1468 1465 1461 1458 1454 1450 1447 1444 1441
1547 1546 1545 1544 1543 1542 1540 1538 1537 1535 1533 1532 1530 1528 1526 1524 1521 1519 1517 1514 1511 1509 1506 1503 1499 1496 1492 1489 1485 1481 1478 1474 1471 1467 1464 1461 1457 1453 1450 1446 1443 1440
1548 1547 1546 1545 1544 1543 1541 1539 1537 1536 1534 1533 1531 1529 1527 1525 1522 1520 1518 1515 1512 1509 1506 1503 1499 1496 1492 1488 1485 1481 1477 1473 1469 1466 1463 1459 1456 1453 1449 1446 1442 1439
1549 1548 1547 1546 1545 1543 1541 1540 1538 1537 1535 1534 1532 1530 1528 1525 1523 1521 1518 1515 1513 1509 1506 1503 1499 1496 1492 1488 1484 1480 1476 1472 1469 1465 1462 1458 1455 1452 1448 1445 1442 1439
1550 1549 1548 1547 1545 1544 1542 1541 1539 1538 1536 1535 1533 1531 1529 1527 1524 1522 1519 1516 1513 1510 1507 1503 1500 1496 1493 1489 1485 1481 1477 1473 1469 1465 1461 1458 1454 1451 1448 1444 1441 1438
1551 1550 1549 1548 1546 1545 1543 1542 1541 1539 1538 1536 1534 1532 1530 1528 1525 1523 1520 1517 1514 1511 1507 1504 1500 1497 1493 1489 1486 1482 1478 1474 1470 1465 1461 1457 1454 1450 1446 1443 1440 1436
1552 1551 1550 1548 1547 1546 1545 1543 1542 1541 1539 1537 1535 1533 1531 1529 1526 1523 1520 1517 1514 1511 1507 1504 1501 1497 1494 1490 1487 1483 1479 1475 1471 1466 1462 1458 1454 1450 1445 1441 1438 1434
Wind_Speed
7 6 5 6 5 4 2 1 4 6 9 11 13 14 14 15 16 17 16 16 16 15 16 15 15 16 16 16 16 18 19 19 20 20 20 21 21 20 20 22 21 19
7 6 6 7 7 6 4 2 1 2 5 7 9 11 12 13 14 16 17 17 17 17 17 17 16 16 16 16 16 16 18 19 19 19 19 20 20 20 20 22 22 19
6 6 7 7 7 7 5 4 3 2 3 4 6 8 10 11 12 13 15 16 17 17 17 17 18 17 17 18 17 17 17 18 18 17 18 19 19 19 19 20 21 20
7 7 7 7 7 7 6 5 6 5 5 4 5 6 7 9 10 12 13 14 15 16 16 17 19 20 19 20 20 20 19 19 18 17 17 17 18 18 18 18 19 20
8 8 8 8 8 8 7 7 8 8 7 7 6 7 7 8 9 10 10 11 12 13 14 16 19 20 19 21 22 22 22 21 20 19 18 17 17 17 17 17 17 19
10 10 10 9 9 10 9 9 10 9 9 9 8 8 8 9 9 10 10 10 10 11 13 15 18 19 19 20 21 21 22 22 22 22 21 19 18 17 16 16 18 19
13 12 12 12 12 12 12 11 11 11 11 10 10 10 11 11 11 11 11 11 11 11 13 14 17 19 19 21 22 22 22 23 23 24 23 22 20 19 17 16 18 19
14 14 14 14 14 14 14 14 13 13 13 12 12 12 13 13 14 14 14 13 12 12 13 14 17 18 19 21 23 24 24 23 23 24 25 24 23 21 19 16 17 19
15 15 15 16 16 17 16 16 15 15 14 14 13 13 14 15 16 16 16 16 15 15 14 15 17 18 19 21 23 25 26 26 25 25 25 25 24 23 21 19 18 19
17 17 18 19 20 20 19 18 17 17 16 16 15 14 14 15 16 17 17 18 18 18 18 18 19 20 21 22 24 25 26 27 26 27 27 25 24 23 22 21 21 21
21 22 22 22 22 22 22 21 20 19 19 19 17 16 16 16 17 17 18 19 20 20 20 20 21 23 23 24 25 26 26 26 25 25 26 26 26 24 22 21 22 23
26 26 26 25 24 24 23 22 22 22 22 22 21 20 20 20 20 20 21 21 22 22 22 22 23 24 25 26 27 27 28 27 26 24 23 24 25 26 25 23 21 23
28 28 27 27 26 25 24 24 25 24 24 24 24 24 25 25 24 24 24 24 24 24 24 25 25 26 27 28 29 30 30 30 28 26 24 22 22 24 27 27 24 23
27 27 27 26 26 26 26 26 27 27 27 26 26 27 28 28 28 28 28 27 26 26 26 26 27 28 30 31 31 31 32 32 31 29 27 24 22 20 22 26 27 26
25 26 26 25 25 26 26 27 29 29 29 28 28 29 30 31 31 31 31 30 30 29 29 29 29 31 33 34 33 32 32 33 32 30 29 28 25 22 19 21 25 27
24 27 28 27 26 26 26 27 29 29 29 29 29 31 31 32 32 31 32 32 32 32 32 32 32 33 33 33 32 32 31 31 31 31 29 28 27 25 21 19 21 24
24 27 30 30 29 28 27 28 29 29 29 29 30 31 31 31 31 31 32 32 33 33 34 34 34 35 34 34 33 32 30 29 29 30 29 27 26 26 24 22 21 22
24 27 29 31 31 30 29 28 29 29 30 30 31 31 31 31 31 32 33 33 34 35 35 36 36 36 36 35 34 33 32 30 28 28 29 28 26 25 25 24 23 23
27 28 29 30 31 30 29 29 29 30 30 31 31 31 31 32 32 33 33 34 35 36 36 37 38 38 37 37 36 35 33 31 29 28 28 28 27 26 25 24 24 23
29 29 29 30 30 30 29 30 30 30 30 30 30 31 32 32 33 33 34 34 35 36 37 37 38 38 38 38 38 36 34 32 30 29 28 27 28 28 26 25 24 24
29 29 29 29 29 29 29 30 30 30 30 30 29 30 31 32 32 33 34 35 36 36 37 38 38 38 38 38 39 38 37 34 32 31 29 28 27 28 28 27 25 25
29 29 29 29 29 29 29 30 30 29 29 28 29 30 30 31 32 33 34 35 36 37 38 38 38 38 38 37 38 38 38 37 35 33 32 30 29 29 29 28 27 26
27 28 29 29 29 30 29 30 29 29 28 28 28 29 30 31 32 32 33 34 36 37 39 39 39 38 37 36 36 38 39 39 38 37 35 34 32 31 31 30 28 28
27 27 27 28 29 30 30 30 30 30 29 29 29 29 30 31 32 32 33 34 35 37 39 39 40 39 38 36 35 36 38 39 39 39 38 37 35 33 32 31 30 29
26 26 26 27 29 30 30 30 30 30 30 30 30 29 30 30 31 31 32 34 35 37 38 39 40 40 40 38 36 35 36 38 39 40 39 39 38 36 34 33 32 31
26 25 25 26 27 29 29 30 30 30 30 30 30 30 30 31 31 31 33 35 37 38 39 40 40 41 41 41 38 36 36 37 39 40 41 40 39 38 36 35 35 36
Wind_Direction
46 49 50 52 57 60 69 240 257 259 264 268 272 279 285 287 287 286 283 282 285 290 294 298 302 305 304 302 301 300 302 303 303 305 305 305 306 300 290 282 273 265
48 41 38 45 52 55 57 51 357 278 275 276 277 281 285 286 285 284 282 279 279 281 286 292 297 300 301 300 298 297 299 301 302 305 304 303 306 305 298 290 281 269
57 41 33 38 47 56 52 39 33 13 330 307 299 296 294 293 292 291 291 288 284 279 279 285 288 289 293 295 294 292 292 295 300 303 303 302 303 304 302 296 286 275
60 52 46 42 42 48 48 44 45 39 25 7 347 332 320 312 306 302 300 297 295 289 282 282 281 281 286 290 292 292 289 290 294 297 298 297 298 301 302 297 287 277
57 53 49 41 37 37 38 44 46 41 32 22 11 357 343 333 324 319 314 306 301 297 290 284 281 280 283 286 289 292 293 292 292 293 292 290 292 296 299 296 288 279
56 51 46 38 37 35 37 45 45 38 31 24 16 6 359 351 343 337 332 323 314 308 301 292 286 283 282 283 286 290 293 294 293 295 295 293 293 294 294 292 286 279
59 54 48 42 40 38 39 43 40 34 32 27 20 14 10 5 359 354 349 341 332 322 313 303 296 292 288 285 284 284 287 289 290 292 293 295 298 296 291 288 285 280
60 54 49 42 40 39 38 38 35 34 33 30 25 22 17 13 11 8 3 357 350 339 327 318 312 308 303 297 291 287 285 285 286 288 290 294 297 296 293 290 285 283
61 53 46 41 38 37 36 36 35 34 33 31 29 25 20 17 15 13 11 7 4 359 351 340 333 330 327 320 312 305 298 293 288 285 286 291 295 297 295 290 285 283
59 52 46 43 42 41 40 39 36 32 29 29 27 22 19 19 16 14 13 13 12 11 7 1 354 351 349 342 336 330 322 313 303 292 285 284 288 294 294 288 283 281
57 51 48 47 47 45 44 41 37 33 30 28 25 21 17 16 16 15 14 15 16 15 13 10 6 2 359 353 349 346 340 333 325 312 297 286 280 283 289 288 283 281
55 51 49 48 47 46 46 44 40 37 34 31 29 25 21 18 18 17 16 17 17 16 15 14 11 7 2 358 353 349 344 341 337 330 317 300 284 277 278 284 284 281
55 51 49 47 46 46 45 44 43 39 37 36 33 31 28 25 23 21 21 21 20 19 18 15 12 8 4 1 357 353 349 344 340 336 330 319 301 282 273 275 279 280
54 51 49 48 47 47 45 44 43 42 41 39 36 35 34 32 31 30 28 28 25 22 19 15 12 8 6 3 360 358 354 349 345 341 337 331 319 300 281 272 271 275
54 51 49 50 50 49 47 45 45 45 44 42 39 38 38 37 35 34 33 31 28 26 23 19 16 13 11 6 2 1 359 355 351 347 343 338 328 315 297 279 271 271
55 54 53 53 52 50 49 49 48 48 47 45 43 42 41 40 38 37 35 32 29 28 25 23 20 17 14 10 5 3 1 359 358 355 350 344 335 325 312 295 280 272
56 57 56 54 53 53 52 52 52 51 49 48 47 45 43 42 39 37 35 33 29 28 25 23 22 18 15 12 9 6 3 1 1 1 357 350 343 335 324 311 296 282
57 58 55 53 53 54 54 55 54 53 51 50 48 46 43 40 38 35 33 31 29 27 24 22 21 18 15 12 10 8 6 3 2 2 2 358 351 343 334 324 310 295
61 60 56 53 52 53 54 55 54 53 51 49 48 45 42 39 36 34 32 31 28 26 24 21 19 17 15 13 11 9 7 6 4 3 4 3 359 352 344 335 324 310
64 61 57 53 52 51 52 53 53 52 51 48 46 44 41 39 36 33 32 30 28 26 23 21 18 16 13 12 11 9 8 7 7 6 5 5 3 359 353 346 337 327
64 61 57 54 51 49 48 49 50 51 49 47 44 42 40 37 34 32 30 28 26 25 23 20 17 15 12 10 9 8 7 7 7 7 5 5 5 3 359 354 347 338
62 59 56 53 49 47 46 46 46 47 47 45 42 40 38 36 32 30 28 26 24 23 21 19 16 13 11 9 8 7 6 5 5 6 5 4 5 4 0 357 354 348
59 57 55 52 49 47 46 45 43 42 42 41 38 36 34 32 30 28 25 24 22 20 19 17 16 14 10 8 7 7 7 6 4 4 4 3 3 3 0 358 357 355
56 55 54 51 48 47 46 45 43 40 38 37 35 33 32 30 28 26 24 22 20 19 18 17 17 16 13 10 8 7 7 7 5 2 2 1 360 359 358 358 357 356
52 52 53 50 46 45 44 43 41 39 36 35 34 32 31 29 27 25 23 21 19 17 17 17 18 18 17 14 11 8 8 8 6 4 2 1 359 356 354 355 356 356
51 50 52 49 44 41 41 40 38 36 35 34 33 32 31 29 27 25 23 20 17 16 16 17 18 18 17 16 14 10 8 8 7 6 3 2 1 357 353 352 353 355